BREEZE-M DEB, 34250

Orbit data source: Space-Track

BREEZE-M DEB, 34250 is space debris in HEO originally from a launch on Tue, 28 Feb 2006 UTC launched from the Tyuratam Missile And Space Complex (TTMTR). Debris objects in space refer to the collection of defunct objects orbiting the Earth. Examples of debris include non-operational satellites, rocket bodies, and fragments generated from explosions, collisions, or faulty payload assembly.

Loading next visibility...
Identifier
34250, 2006-006BR
Orbit
HEO
Country
Flag of CISCIS
Related business
Manufacturer
Khrunichev
Mission
Spacecraft
Bus & Motor
Unknown
Mass
Unknown
Launch date (UTC)
2006-02-28 (20 years ago)
Launch vehicle
Unknown
Launch site
Tyuratam Missile And Space Complex (TTMTR)
Object type
Payload
Rocket body
Debris
Shape & HBR
Unknown shape, 0.1 m
Radar Cross Section
Medium (>0.1 m² and <1 m²)

Expand to show TLE details & history
Last TLE update: 5 days ago

TLE from 5 days ago
0 BREEZE-M DEB
1 34250U 06006BR  26158.25479756  .00000906  00000-0  16928-2 0  9996
2 34250  51.6949 186.4937 5019277 356.7886   0.9721  5.32994945 36909
Epoch: 2026-06-07T06:06Z
TLE epoch observation values (Epoch: 2026-06-07T06:06:54.509Z)
Latitude
0.00004°
Longitude
-160.88925°
Altitude
522.578 km
Speed
9.314 km/s
True Right ascension
12h 25m 59s
True Declination
0° 00' 00"
Sunlit
Object was in daylight at epoch
Visualization orbit readout
Latitude
Unknown
Longitude
Unknown
Altitude
Unknown
Speed
Unknown
Apparent Right ascension
Unknown
Apparent Declination
Unknown
Sunlit
N/A
Visualization observer readout
Local Sidereal Time
19:40:36
Azimuth
Unknown
Elevation
Unknown
Doppler factor
Unknown
Orbital elements
Apogee altitude
14,414.721 km
Perigee altitude
517.232 km
Semi-major axis
13,844.114 km
Eccentricity
0.50193
Inclination
51.6949°
RAAN
186.4937°
Arg. of periapsis
356.7886°
True anomaly
3.38788°
Mean anomaly
0.9721°
Eccentric anomaly
1.95134°
Mean motion
1.33243 °/min
Orbital period
270.18 mins
BSTAR
0.0016928
Loading maneuver chart data...
Computing Atmospheric mass density...
Loading historical data...
Loading historical data...
Loading historical data...
Loading historical data...
Loading historical data...
Loading historical data...
Loading historical data...

Documentation

Showing up to 5 results
|